EW4858 Weather Reports


Display with metric or nautical units.
time (UTC)temp
F
wind
direction
speed
MPH
gust
MPH
rain 1hr
in
rain 24hr
in
rain mn
in
humidity
%
barometer
mb
20260506134542 51 234 3.0 5.0 0.00 0.13 0.00 87 1014.6
20260506133044 50 213 0.0 3.0 0.00 0.13 0.00 89 1014.4
20260506131540 50 213 0.0 0.0 0.00 0.13 0.00 89 1014.3
20260506130039 49 213 0.0 0.0 0.00 0.13 0.00 89 1014.1
20260506124539 49 213 0.0 0.0 0.00 0.14 0.00 88 1014.0
20260506123036 50 213 0.0 4.0 0.00 0.14 0.00 89 1013.9
20260506121535 50 213 1.0 4.0 0.00 0.14 0.00 89 1013.8
20260506120035 49 210 0.0 0.0 0.00 0.14 0.00 89 1013.9
20260506114533 50 210 0.0 3.0 0.00 0.14 0.00 89 1013.8
20260506113034 50 209 0.0 5.0 0.00 0.14 0.00 89 1013.8
20260506111533 50 208 2.0 4.0 0.00 0.14 0.00 89 1013.7
20260506110034 50 207 1.0 3.0 0.00 0.14 0.00 89 1013.6
20260506104531 50 207 2.0 4.0 0.00 0.15 0.00 89 1013.7
20260506103031 50 207 0.0 0.0 0.00 0.15 0.00 89 1013.6
20260506101531 50 207 0.0 0.0 0.00 0.15 0.00 89 1013.5
20260506100030 50 207 1.0 3.0 0.00 0.15 0.00 88 1013.4
20260506094528 50 207 0.0 0.0 0.00 0.17 0.00 88 1013.4
20260506093033 50 207 0.0 2.0 0.00 0.17 0.00 88 1013.4
20260506091526 51 207 1.0 2.0 0.00 0.17 0.00 87 1013.5
20260506090023 51 207 0.0 3.0 0.00 0.24 0.00 87 1013.6
20260506084532 51 207 1.0 3.0 0.00 0.24 0.00 87 1013.8
20260506083018 51 207 0.0 2.0 0.00 0.24 0.00 86 1014.1
20260506081517 52 207 0.0 3.0 0.00 0.24 0.00 86 1014.1
20260506073013 52 200 2.0 4.0 0.00 0.24 0.00 85 1014.2
20260506071512 53 199 0.0 3.0 0.00 0.24 0.00 85 1014.3
20260506061505 54 164 0.0 4.0 0.00 0.24 0.24 83 1013.9
20260506050109 56 128 0.0 0.0 0.00 0.24 0.24 78 1013.9
20260506044601 57 128 0.0 0.0 0.00 0.24 0.24 76 1013.5
20260506043102 57 126 0.0 0.0 0.00 0.24 0.24 74 1013.4
20260506041557 58 126 0.0 0.0 0.00 0.24 0.24 74 1013.3
20260506040056 58 136 0.0 4.0 0.00 0.24 0.24 73 1013.1
20260506034556 58 97 2.0 5.0 0.00 0.24 0.24 73 1012.8
20260506033101 58 96 4.0 8.0 0.00 0.24 0.24 73 1012.6
20260506031552 59 89 4.0 8.0 0.00 0.24 0.24 72 1012.4
20260506030056 59 88 4.0 8.0 0.00 0.24 0.24 71 1012.1
20260506024555 60 94 5.0 10.0 0.00 0.24 0.24 69 1011.8
20260506023045 60 103 2.0 9.0 0.00 0.24 0.24 67 1011.7
20260506021555 61 111 3.0 8.0 0.00 0.24 0.24 64 1011.5
20260506020044 62 49 5.0 9.0 0.00 0.24 0.24 62 1011.3
20260506014544 63 32 4.0 11.0 0.00 0.24 0.24 60 1011.2
20260506013144 63 114 5.0 11.0 0.00 0.24 0.24 60 1011.0
20260506011608 64 86 4.0 10.0 0.00 0.24 0.24 59 1011.0
20260506010041 63 99 6.0 12.0 0.00 0.24 0.24 61 1010.9
20260506004545 63 23 8.0 13.0 0.00 0.24 0.24 60 1010.9
20260506003042 64 33 8.0 16.0 0.00 0.24 0.24 59 1010.7
20260506001543 64 45 8.0 13.0 0.00 0.24 0.24 58 1010.7
20260506000046 64 102 6.0 12.0 0.00 0.24 0.24 58 1010.7
20260505234539 64 73 6.0 13.0 0.00 0.24 0.24 57 1010.7
20260505233038 64 78 7.0 14.0 0.00 0.24 0.24 57 1010.7
20260505231541 64 84 6.0 14.0 0.00 0.24 0.24 58 1010.7
20260505230037 64 76 4.0 11.0 0.00 0.24 0.24 58 1010.7
20260505224537 64 57 8.0 17.0 0.00 0.24 0.24 56 1010.8
20260505223036 66 62 8.0 16.0 0.00 0.24 0.24 52 1010.9
20260505221535 66 24 9.0 13.0 0.00 0.24 0.24 53 1011.0
20260505220051 66 69 8.0 12.0 0.00 0.24 0.24 56 1011.0
20260505214534 66 36 10.0 15.0 0.00 0.24 0.24 54 1011.1
20260505213038 66 61 9.0 14.0 0.00 0.24 0.24 55 1011.1
20260505211538 66 37 8.0 17.0 0.00 0.24 0.24 55 1011.4
20260505210033 66 44 9.0 16.0 0.00 0.24 0.24 55 1011.4
20260505204526 64 44 7.0 16.0 0.00 0.24 0.24 58 1011.5
20260505203025 63 92 5.0 14.0 0.00 0.24 0.24 60 1011.7
20260505201525 63 82 10.0 17.0 0.00 0.24 0.24 64 1011.8
20260505200024 64 101 6.0 13.0 0.00 0.24 0.24 61 1011.7
20260505194523 63 70 5.0 11.0 0.00 0.24 0.24 61 1011.9
20260505193031 62 46 7.0 10.0 0.00 0.24 0.24 63 1012.0
20260505191522 62 87 4.0 14.0 0.00 0.24 0.24 70 1012.0
20260505190016 62 73 3.0 11.0 0.01 0.24 0.24 69 1012.1
20260505184514 60 90 6.0 13.0 0.01 0.24 0.24 76 1012.0
20260505183012 59 38 4.0 11.0 0.01 0.24 0.24 84 1012.1
20260505181507 58 161 1.0 4.0 0.01 0.24 0.24 89 1012.1
20260505180006 57 245 0.0 0.0 0.01 0.23 0.23 90 1012.1
20260505174505 56 262 0.0 0.0 0.03 0.23 0.23 91 1012.0
20260505173005 56 262 0.0 0.0 0.04 0.23 0.23 91 1011.8
20260505171503 55 262 0.0 0.0 0.05 0.23 0.23 90 1011.7
20260505170001 56 262 0.0 0.0 0.04 0.22 0.22 90 1011.6
20260505164604 56 262 0.0 4.0 0.02 0.20 0.20 90 1011.5
20260505163100 56 281 0.0 3.0 0.01 0.19 0.19 90 1011.3
20260505161601 56 271 0.0 4.0 0.00 0.18 0.18 90 1011.2
20260505153109 54 125 0.0 0.0 0.06 0.18 0.18 92 1011.1
20260505151555 54 102 0.0 0.0 0.06 0.18 0.18 92 1011.1